Breckenridge, TX

12:56 PM CDT on August 26, 2016 (GMT -0500)
Stephens County

Weather History for KBKD - March, 2014

Change the Weather History Date:

Monday, March 24, 2014

  Actual Average (KABI) Record (KABI)
Temperature  
Mean Temperature 53 °F 59 °F  
Max Temperature 73 °F 71 °F 93 °F (1988)
Min Temperature 33 °F 46 °F 26 °F (1974)
Degree Days  
Heating Degree Days 12 8  
Month to date heating degree days 249  
Since 1 July heating degree days 2382  
Cooling Degree Days 0 1  
Month to date cooling degree days 19  
Year to date cooling degree days 24  
Growing Degree Days 3 (Base 50)    
Moisture  
Dew Point 30 °F    
Average Humidity 43    
Maximum Humidity 75    
Minimum Humidity 22    
Precipitation  
Precipitation 0.00 in 0.06 in 2.75 in (1943)
Month to date precipitation 1.36  
Year to date precipitation 3.74  
Sea Level Pressure  
Sea Level Pressure 30.14 in    
Wind  
Wind Speed 3 mph (NNW)    
Max Wind Speed 13 mph    
Max Gust Speed 20 mph    
Visibility 10 miles    
Events      
T = Trace of Precipitation, MM = Missing Value Source: NWS Daily Summary

Daily Weather History Graph

Daily Weather History Graph

Search for Another Location

Airport or City:

Trip Planner

Search our weather history database for the weather conditions in past years. The results will help you decide how hot, cold, wet, or windy it might be!

Date:

Astronomy

Mar. 24, 2014 Rise Set
Actual Time 7:33 AM CDT 7:50 PM CDT
Civil Twilight 7:09 AM CDT 8:14 PM CDT
Nautical Twilight 6:40 AM CDT 8:43 PM CDT
Astronomical Twilight 6:11 AM CDT 9:12 PM CDT
Moon 2:47 AM CDT (3/24) 1:34 PM CDT (3/24)
Length of Visible Light 13h 05m
Length of Day
12h 16m
Last Quarter, 43% of the Moon is Illuminated
Mar 24
Last Quarter
Mar 30
New
Apr 7
First Quarter
Apr 15
Full
Apr 22
Last Quarter

Hourly Weather History & Observations

Time (CDT) Temp. Windchill Dew Point Humidity Pressure Visibility Wind Dir Wind Speed Gust Speed Precip Events Conditions
12:15 AM 43.7 °F 42.1 °F 22.3 °F 43% 30.26 in 10.0 mi ENE 3.5 mph - N/A   Clear
12:35 AM 40.3 °F - 25.2 °F 55% 30.25 in 10.0 mi Calm Calm - N/A   Clear
12:55 AM 41.9 °F - 23.7 °F 49% 30.25 in 10.0 mi Calm Calm - N/A   Clear
1:15 AM 39.9 °F - 24.4 °F 54% 30.24 in 10.0 mi Calm Calm - N/A   Clear
1:35 AM 39.6 °F - 23.9 °F 54% 30.23 in 10.0 mi Calm Calm - N/A   Clear
1:55 AM 39.6 °F - 23.9 °F 54% 30.23 in 10.0 mi Calm Calm - N/A   Clear
2:15 AM 39.2 °F - 23.5 °F 53% 30.22 in 10.0 mi Calm Calm - N/A   Clear
2:35 AM 37.4 °F - 23.0 °F 56% 30.21 in 10.0 mi Calm Calm - N/A   Clear
2:55 AM 40.1 °F - 23.0 °F 51% 30.20 in 10.0 mi Calm Calm - N/A   Clear
3:15 AM 39.6 °F 37.4 °F 23.4 °F 52% 30.20 in 10.0 mi SSE 3.5 mph - N/A   Clear
3:35 AM 37.6 °F 35.1 °F 23.4 °F 57% 30.19 in 10.0 mi South 3.5 mph - N/A   Clear
3:55 AM 38.8 °F - 23.0 °F 53% 30.19 in 10.0 mi Calm Calm - N/A   Clear
4:15 AM 37.6 °F 35.1 °F 23.4 °F 57% 30.18 in 10.0 mi SW 3.5 mph - N/A   Clear
4:35 AM 36.7 °F - 23.9 °F 60% 30.18 in 10.0 mi Calm Calm - N/A   Clear
4:55 AM 35.2 °F - 23.0 °F 61% 30.18 in 10.0 mi Calm Calm - N/A   Clear
5:15 AM 35.1 °F - 23.9 °F 64% 30.18 in 10.0 mi Calm Calm - N/A   Clear
5:35 AM 33.8 °F - 23.4 °F 66% 30.18 in 10.0 mi Calm Calm - N/A   Clear
5:55 AM 34.2 °F - 23.9 °F 66% 30.17 in 10.0 mi Calm Calm - N/A   Clear
6:15 AM 33.6 °F - 24.3 °F 69% 30.17 in 10.0 mi Calm Calm - N/A   Clear
6:35 AM 34.2 °F 30.0 °F 25.5 °F 71% 30.17 in 10.0 mi South 4.6 mph - N/A   Clear
6:55 AM 35.2 °F 32.4 °F 26.4 °F 70% 30.17 in 10.0 mi South 3.5 mph - N/A   Clear
7:15 AM 33.8 °F 28.6 °F 26.6 °F 75% 30.17 in 10.0 mi SSW 5.8 mph - N/A   Clear
7:35 AM 35.6 °F 32.8 °F 27.0 °F 71% 30.17 in 10.0 mi SSW 3.5 mph - N/A   Clear
7:55 AM 35.6 °F - 26.1 °F 68% 30.18 in 10.0 mi Calm Calm - N/A   Clear
8:15 AM 36.3 °F - 26.4 °F 67% 30.18 in 10.0 mi Calm Calm - N/A   Clear
8:35 AM 39.0 °F - 27.0 °F 62% 30.18 in 10.0 mi Calm Calm - N/A   Clear
8:55 AM 40.3 °F - 27.3 °F 60% 30.19 in 10.0 mi Calm Calm - N/A   Clear
9:15 AM 42.4 °F - 28.6 °F 58% 30.18 in 10.0 mi Calm Calm - N/A   Clear
9:35 AM 45.5 °F - 29.5 °F 54% 30.18 in 10.0 mi Calm Calm - N/A   Clear
9:55 AM 49.1 °F - 30.2 °F 48% 30.18 in 10.0 mi Calm Calm - N/A   Clear
10:15 AM 52.9 °F - 30.9 °F 43% 30.17 in 10.0 mi South 5.8 mph - N/A   Clear
10:35 AM 55.0 °F - 31.6 °F 41% 30.16 in 10.0 mi SSE 4.6 mph - N/A   Clear
10:55 AM 57.4 °F - 33.6 °F 41% 30.17 in 10.0 mi SW 5.8 mph - N/A   Clear
11:15 AM 58.5 °F - 34.7 °F 41% 30.15 in 10.0 mi SW 4.6 mph - N/A   Clear
11:35 AM 59.5 °F - 36.3 °F 42% 30.15 in 10.0 mi Calm Calm - N/A   Clear
11:55 AM 61.0 °F - 37.0 °F 41% 30.14 in 10.0 mi West 6.9 mph - N/A   Clear
12:15 PM 61.3 °F - 37.4 °F 41% 30.13 in 10.0 mi West 6.9 mph - N/A   Clear
12:35 PM 62.2 °F - 37.6 °F 40% 30.12 in 10.0 mi Calm Calm - N/A   Clear
1:15 PM 64.0 °F - 37.8 °F 38% 30.10 in 10.0 mi NW 4.6 mph - N/A   Clear
1:35 PM 65.3 °F - 37.8 °F 36% 30.09 in 10.0 mi SW 4.6 mph - N/A   Clear
1:55 PM 66.4 °F - 37.2 °F 34% 30.08 in 10.0 mi West 5.8 mph - N/A   Clear
2:15 PM 66.9 °F - 37.2 °F 34% 30.06 in 10.0 mi SW 4.6 mph - N/A   Clear
2:35 PM 68.2 °F - 37.9 °F 33% 30.05 in 10.0 mi WNW 3.5 mph - N/A   Clear
2:55 PM 68.9 °F - 38.1 °F 32% 30.04 in 10.0 mi West 5.8 mph - N/A   Clear
3:15 PM 70.5 °F - 39.0 °F 32% 30.04 in 10.0 mi West 6.9 mph - N/A   Clear
3:35 PM 70.3 °F - 38.5 °F 31% 30.03 in 10.0 mi Calm Calm - N/A   Clear
3:55 PM 71.8 °F - 38.8 °F 30% 30.02 in 10.0 mi NNW 8.1 mph - N/A   Clear
4:15 PM 70.9 °F - 38.7 °F 31% 30.01 in 10.0 mi ENE 6.9 mph - N/A   Clear
4:35 PM 72.9 °F - 39.0 °F 29% 30.01 in 10.0 mi NNW 6.9 mph - N/A   Clear
4:55 PM 73.0 °F - 38.8 °F 29% 30.00 in 10.0 mi WNW 5.8 mph - N/A   Clear
5:15 PM 72.7 °F - 37.6 °F 28% 30.01 in 10.0 mi NW 9.2 mph - N/A   Clear
5:35 PM 73.2 °F - 36.5 °F 26% 30.01 in 10.0 mi North 11.5 mph 16.1 mph N/A   Clear
5:55 PM 73.2 °F - 35.6 °F 25% 30.02 in 10.0 mi North 6.9 mph - N/A   Clear
6:15 PM 73.2 °F - 33.8 °F 24% 30.02 in 10.0 mi North 6.9 mph - N/A   Clear
6:35 PM 72.5 °F - 32.2 °F 23% 30.03 in 10.0 mi North 10.4 mph - N/A   Clear
6:55 PM 72.0 °F - 30.9 °F 22% 30.04 in 10.0 mi North 12.7 mph - N/A   Clear
7:15 PM 70.9 °F - 30.4 °F 22% 30.05 in 10.0 mi North 6.9 mph - N/A   Clear
7:35 PM 69.8 °F - 30.0 °F 23% 30.06 in 10.0 mi North 11.5 mph 17.3 mph N/A   Clear
7:55 PM 68.0 °F - 29.5 °F 24% 30.07 in 10.0 mi NNE 8.1 mph - N/A   Clear
8:15 PM 66.2 °F - 29.3 °F 25% 30.08 in 10.0 mi NNE 6.9 mph - N/A   Clear
8:35 PM 64.6 °F - 29.3 °F 27% 30.10 in 10.0 mi NNE 6.9 mph - N/A   Clear
8:55 PM 63.5 °F - 29.1 °F 27% 30.11 in 10.0 mi NNE 5.8 mph - N/A   Clear
9:15 PM 62.6 °F - 29.1 °F 28% 30.12 in 10.0 mi NE 4.6 mph - N/A   Clear
9:35 PM 61.3 °F - 29.3 °F 30% 30.13 in 10.0 mi NNE 5.8 mph - N/A   Clear
9:55 PM 60.8 °F - 28.4 °F 29% 30.15 in 10.0 mi North 10.4 mph - N/A   Clear
10:15 PM 59.9 °F - 27.7 °F 29% 30.17 in 10.0 mi North 9.2 mph - N/A   Clear
10:35 PM 59.9 °F - 26.6 °F 28% 30.18 in 10.0 mi North 9.2 mph - N/A   Clear
10:55 PM 59.2 °F - 26.2 °F 28% 30.18 in 10.0 mi North 10.4 mph 19.6 mph N/A   Clear
11:15 PM 58.1 °F - 25.7 °F 29% 30.18 in 10.0 mi North 12.7 mph - N/A   Clear
11:35 PM 57.0 °F - 25.7 °F 30% 30.18 in 10.0 mi North 10.4 mph - N/A   Clear
11:55 PM 55.6 °F - 26.1 °F 32% 30.18 in 10.0 mi NNE 8.1 mph - N/A   Clear